FW8108 Weather Reports


Display with metric or nautical units.
time (UTC)temp
F
wind
direction
speed
MPH
gust
MPH
rain 1hr
in
rain 24hr
in
rain mn
in
humidity
%
barometer
mb
20260504150804 46 0 0.0 2.0 0.03 0.05 0.05 91 1007.6
20260504141304 50 310 2.0 8.0 0.00 0.02 0.02 74 1006.8
20260504140304 50 305 2.0 8.0 0.00 0.02 0.02 79 1006.8
20260504130304 49 291 2.0 7.0 0.00 0.02 0.02 80 1006.5
20260504120304 40 310 0.0 0.0 0.00 0.02 0.02 99 1007.2
20260504110304 37 328 0.0 0.0 0.01 0.02 0.02 98 1007.5
20260504100304 36 14 1.0 5.0 0.01 0.01 0.01 93 1007.5
20260504081804 36 312 0.0 2.0 0.00 0.00 0.00 89 1007.8
20260504080804 36 108 1.0 2.0 0.00 0.00 0.00 89 1007.7
20260504070304 42 162 2.0 3.0 0.00 0.00 0.00 77 1008.2
20260504050304 31 308 0.0 1.0 0.00 0.00 0.00 90 1008.3
20260504045804 31 307 1.0 2.0 0.00 0.00 0.00 91 1008.5
20260504045305 31 331 0.0 0.0 0.00 0.00 0.00 90 1008.3
20260504044804 31 331 0.0 0.0 0.00 0.00 0.00 90 1008.5
20260504044304 31 331 0.0 1.0 0.00 0.00 0.00 90 1008.5
20260504043806 31 331 0.0 1.0 0.00 0.00 0.00 89 1008.4
20260504042804 31 331 0.0 1.0 0.00 0.00 0.00 90 1008.7
20260504042304 31 331 0.0 1.0 0.00 0.00 0.00 88 1008.7
20260504041805 31 331 0.0 1.0 0.00 0.00 0.00 87 1008.6
20260504040830 31 340 0.0 0.0 0.00 0.00 0.00 88 1008.6
20260504040305 31 340 0.0 1.0 0.00 0.00 0.00 87 1008.5
20260504035804 31 339 0.0 0.0 0.00 0.00 0.00 85 1008.6
20260504035305 32 339 0.0 0.0 0.00 0.00 0.00 84 1008.7
20260504034804 32 338 0.0 1.0 0.00 0.00 0.00 85 1008.5
20260504034305 32 26 0.0 1.0 0.00 0.00 0.00 85 1008.5
20260504033805 33 338 0.0 1.0 0.00 0.00 0.00 82 1008.6
20260504033305 33 9 0.0 1.0 0.00 0.00 0.00 81 1008.5
20260504032805 32 42 0.0 1.0 0.00 0.00 0.00 83 1008.6
20260504031804 32 334 0.0 1.0 0.00 0.00 0.00 84 1008.5
20260504031304 33 333 0.0 1.0 0.00 0.00 0.00 84 1008.4
20260504030804 34 299 0.0 3.0 0.00 0.00 0.00 81 1008.6
20260504030304 34 35 1.0 1.0 0.00 0.00 0.00 76 1008.7
20260504024804 34 74 1.0 2.0 0.00 0.00 0.00 77 1008.7
20260504023804 35 353 0.0 1.0 0.00 0.00 0.00 75 1008.6
20260504023305 35 351 0.0 0.0 0.00 0.00 0.00 77 1008.7
20260504022806 35 351 0.0 1.0 0.00 0.00 0.00 76 1008.6
20260504022305 35 353 0.0 0.0 0.00 0.00 0.00 76 1008.8
20260504021804 36 351 0.0 2.0 0.00 0.00 0.00 77 1008.7
20260504020805 37 294 0.0 3.0 0.00 0.00 0.00 75 1008.8
20260504020304 36 238 0.0 1.0 0.00 0.00 0.00 74 1008.8
20260504015805 36 238 0.0 0.0 0.00 0.00 0.00 73 1008.7
20260504015304 38 238 1.0 1.0 0.00 0.00 0.00 71 1008.8
20260504014804 38 207 0.0 1.0 0.00 0.00 0.00 67 1008.6
20260504013805 40 207 0.0 2.0 0.00 0.00 0.00 65 1008.7
20260504013304 42 151 2.0 3.0 0.00 0.00 0.00 59 1008.6
20260504012805 41 136 1.0 2.0 0.00 0.00 0.00 59 1008.8
20260504012305 41 143 2.0 3.0 0.00 0.00 0.00 58 1008.7
20260504011805 40 94 1.0 2.0 0.00 0.00 0.00 63 1008.5
20260504010805 43 142 2.0 2.0 0.00 0.00 0.00 55 1008.4
20260504010305 43 135 2.0 3.0 0.00 0.00 0.00 56 1008.6
20260504005804 43 80 2.0 3.0 0.00 0.00 0.00 56 1008.6
20260504005305 42 146 2.0 3.0 0.00 0.00 0.00 56 1008.4
20260504004804 42 161 2.0 3.0 0.00 0.00 0.00 57 1008.4
20260504004304 43 149 2.0 3.0 0.00 0.00 0.00 56 1008.3
20260504003804 43 180 1.0 2.0 0.00 0.00 0.00 55 1008.3
20260504003304 42 191 1.0 2.0 0.00 0.00 0.00 55 1008.2
20260504002804 43 242 1.0 2.0 0.00 0.00 0.00 58 1008.3
20260504002304 43 125 1.0 2.0 0.00 0.00 0.00 54 1008.2
20260504001804 43 17 1.0 2.0 0.00 0.00 0.00 55 1008.1
20260504000804 44 302 1.0 3.0 0.00 0.00 0.00 53 1008.2
20260503235804 45 329 0.0 6.0 0.00 0.00 0.00 51 1008.3
20260503235304 45 296 0.0 2.0 0.00 0.00 0.00 51 1008.1
20260503234805 45 284 2.0 6.0 0.00 0.01 0.00 50 1008.3
20260503234304 45 320 2.0 7.0 0.00 0.01 0.00 49 1008.2
20260503233804 46 281 3.0 8.0 0.00 0.01 0.00 49 1008.1
20260503233304 46 300 2.0 6.0 0.00 0.01 0.00 50 1008.0
20260503232804 46 297 3.0 6.0 0.00 0.02 0.00 49 1008.3
20260503232305 46 306 2.0 9.0 0.00 0.02 0.00 49 1008.0
20260503231804 47 306 2.0 7.0 0.00 0.03 0.00 48 1008.0
20260503231304 46 286 3.0 9.0 0.00 0.03 0.00 48 1008.1
20260503230804 46 297 5.0 10.0 0.00 0.04 0.00 50 1008.0
20260503230305 46 320 3.0 5.0 0.00 0.04 0.00 51 1008.0
20260503225804 47 275 1.0 5.0 0.00 0.04 0.00 50 1008.1
20260503225305 47 285 2.0 5.0 0.00 0.04 0.00 50 1008.0
20260503224804 48 308 2.0 5.0 0.00 0.04 0.00 47 1008.1
20260503224304 48 280 2.0 5.0 0.00 0.04 0.00 49 1008.0
20260503223804 48 299 3.0 8.0 0.00 0.04 0.00 46 1008.0
20260503223304 48 334 5.0 10.0 0.00 0.04 0.00 47 1008.1
20260503222804 48 307 5.0 10.0 0.00 0.04 0.00 48 1008.1
20260503222304 47 287 5.0 8.0 0.00 0.04 0.00 49 1008.0
20260503221804 46 310 3.0 12.0 0.00 0.04 0.00 49 1007.9
20260503221304 46 328 7.0 12.0 0.00 0.04 0.00 49 1008.0
20260503220804 47 281 4.0 9.0 0.00 0.04 0.00 49 1008.0
20260503220304 47 307 4.0 9.0 0.00 0.04 0.00 49 1008.0
20260503215305 47 313 2.0 6.0 0.00 0.04 0.00 51 1007.8
20260503214804 46 313 2.0 8.0 0.00 0.04 0.00 51 1008.0
20260503214304 46 295 5.0 14.0 0.00 0.04 0.00 48 1008.1
20260503213805 47 329 4.0 15.0 0.00 0.04 0.00 49 1008.0
20260503212805 46 321 3.0 8.0 0.00 0.04 0.00 52 1007.9
20260503211805 47 328 6.0 12.0 0.00 0.04 0.00 51 1007.9
20260503211304 47 284 3.0 12.0 0.00 0.04 0.00 49 1007.9
20260503210804 47 305 7.0 10.0 0.00 0.04 0.00 50 1007.9
20260503210305 47 319 5.0 9.0 0.00 0.04 0.00 51 1008.1
20260503205804 46 315 4.0 12.0 0.00 0.04 0.00 51 1008.0
20260503204804 45 257 6.0 10.0 0.00 0.04 0.00 52 1008.0
20260503203304 45 294 4.0 8.0 0.00 0.04 0.00 57 1008.0
20260503202304 45 306 5.0 12.0 0.00 0.04 0.00 55 1007.9
20260503201804 45 288 4.0 10.0 0.00 0.04 0.00 55 1007.8
20260503201304 46 298 5.0 10.0 0.00 0.04 0.00 53 1007.8
20260503200804 46 299 4.0 10.0 0.00 0.04 0.00 53 1007.9
20260503200304 47 271 3.0 8.0 0.00 0.04 0.00 52 1007.8
20260503195804 46 297 4.0 6.0 0.00 0.04 0.00 53 1007.8
20260503195305 45 293 4.0 10.0 0.00 0.04 0.00 55 1008.1
20260503194804 45 341 2.0 12.0 0.00 0.04 0.00 55 1008.1
20260503194304 45 306 5.0 13.0 0.00 0.04 0.00 53 1008.2
20260503193804 46 302 5.0 13.0 0.00 0.04 0.00 51 1008.1
20260503193304 46 296 7.0 13.0 0.00 0.04 0.00 50 1008.1
20260503192804 46 318 4.0 14.0 0.00 0.04 0.00 51 1008.1
20260503192305 47 319 7.0 16.0 0.00 0.04 0.00 50 1008.2
20260503191804 46 264 7.0 16.0 0.00 0.04 0.00 50 1008.2
20260503191304 45 296 5.0 13.0 0.00 0.04 0.00 52 1008.1
20260503190805 46 338 7.0 14.0 0.00 0.04 0.00 51 1008.3
20260503190304 46 311 5.0 15.0 0.00 0.04 0.00 52 1008.2
20260503185804 46 327 4.0 9.0 0.00 0.04 0.00 50 1008.3
20260503185305 45 329 4.0 12.0 0.00 0.04 0.00 53 1008.1
20260503184304 45 19 6.0 13.0 0.00 0.04 0.00 53 1008.4
20260503183806 45 284 9.0 16.0 0.00 0.04 0.00 50 1008.2
20260503183304 46 295 6.0 13.0 0.00 0.04 0.00 50 1008.3
20260503182805 46 295 6.0 12.0 0.00 0.04 0.00 52 1008.1
20260503182306 46 298 6.0 13.0 0.00 0.04 0.00 51 1008.4
20260503181804 46 298 4.0 13.0 0.00 0.04 0.00 50 1008.2
20260503181304 46 312 7.0 15.0 0.00 0.04 0.00 49 1008.4
20260503180804 47 279 6.0 15.0 0.00 0.04 0.00 49 1008.4
20260503175804 46 337 3.0 12.0 0.00 0.04 0.00 50 1008.3
20260503175305 45 326 2.0 15.0 0.00 0.04 0.00 52 1008.5
20260503174804 44 341 7.0 15.0 0.00 0.04 0.00 52 1008.3
20260503174304 44 305 8.0 14.0 0.00 0.04 0.00 53 1008.4
20260503173305 45 292 5.0 18.0 0.00 0.04 0.00 58 1008.4
20260503172804 45 296 9.0 15.0 0.00 0.04 0.00 54 1008.4
20260503172305 45 315 7.0 14.0 0.00 0.04 0.00 54 1008.3
20260503170804 46 291 6.0 16.0 0.00 0.04 0.00 50 1008.4
20260503170304 45 268 6.0 14.0 0.00 0.04 0.00 48 1008.5